PEGASUS DEB

Satellite information

Favourite Embed

Satellite Type and Status

DEBRISIN ORBIT

Key statistics

Satellite PEGASUS DEB at a glance.

Uptime

11478

Days in orbit

Revolutions

≈ 14.2

Per day

Orbit

LEO

Low Earth Orbit

Inclination

81.7

Latest

Satellite identification and parameters

Extended collection of information and parameters for PEGASUS DEB.

Object identification

Identified? True

Debris? True

Object name: PEGASUS DEB

International designator: 1994-029ABU

Object number (NORAD): 24817

Object ID (CCSDS): 24817

Country: UNITED STATES OF AMERICA (US)

Current information (Y/N): Y

RCS size: SMALL

Orbital parameters

Period: 101.571 minutes

Inclination: 81.6901 deg

SMA: 7211.179 km

Apoapsis: 1099.29 km

Periapsis: 566.798 km

RAAN: 223.7606 deg

Eccentricy: 0.03692126

Argument of periapsis: 61.8546 deg

Mean anomaly: 353.3464 deg

Mean motion: 14.17729406 rev/day

Mean motion (dot): 0.00009907 rev/day2

B* drag term: 0.0024621162 1/REarth

Two-line elements (TLE)

Creation date: Oct. 21, 2025, 3:26 a.m.

Reference frame: TEME

Reference center: EARTH

Epoch: Oct. 20, 2025, 7:55 p.m. UTC

TLE line 0: 0 PEGASUS DEB

TLE line 1: 1 24817U 94029ABU 25293.83036394 .00009907 00000-0 24621-2 0 9995

TLE line 2: 2 24817 81.6901 223.7606 0369213 61.8546 353.3464 14.17729406486736

Live tracking on map

Real-time ground track for satellite PEGASUS DEB.

In-orbit conjunctions

A list of the most updated potential collisions computed for object PEGASUS DEB.

Target Orbit TCA Probability of collision Miss distance Type
FENGYUN 1C DEB SSO 2024-11-17 04:10:09 0.0001194516 51.0 (m) DEBRIS
FENGYUN 1C DEB SSO 2024-11-04 12:59:10 0.0002413906 42.0 (m) DEBRIS

Associated space launch

PEGASUS DEB was lifted into orbit during the mission ‘Pegasus HAPS | Space Test Experiments Platform 2 (STEP-2)’, on board a Pegasus HAPS space rocket.

The launch took place on May 19, 1994, 5:03 p.m. from Edwards Air Force Base.

For more information about the launch, click the button.

Launch to space Pegasus HAPS | Space Test Experiments Platform 2 (STEP-2)
Pegasus HAPS | Space Test Experiments Platform 2 (STEP-2)

Agency: N/A

Status: Launch Successful

Launch date: May 19, 1994, 5:03 p.m. UTC

Rocket: Pegasus HAPS

Launch pad: Edwards Air Force Base

Location: Air launch to orbit

...

Latest news about this satellite

There are no fresh news available about this satellite. Check back as we update our databases every day.


Newsletter sign-up

Weekly statistics, charts and insights to help you stay on top of the space industry.